This is the latest recevied weather packets stored in our database for station/object JH7UAX-10. If no packets are shown the sender has not sent any weather packets the latest 10 day(s).
| Time | Temp. | Humidity | Pressure | Rain* | Wind** | Luminosity | Snow |
|---|---|---|---|---|---|---|---|
| 1778098977 | 12.78° C | 75% | 1026 hPa | 0 mm | - | - | - |
| 1778098077 | 12.22° C | 77% | 1026.1 hPa | 0 mm | - | - | - |
| 1778097605 | 12.22° C | 78% | 1025.9 hPa | 0 mm | - | - | - |
| 1778097179 | 11.67° C | 78% | 1026 hPa | 0 mm | - | - | - |
| 1778096705 | 11.67° C | 80% | 1026.3 hPa | 0 mm | - | - | - |
| 1778096279 | 11.11° C | 81% | 1026.4 hPa | 0 mm | - | - | - |
| 1778095805 | 10.56° C | 81% | 1026.4 hPa | 0 mm | - | - | - |
| 1778095378 | 10.56° C | 82% | 1026.5 hPa | 0 mm | - | - | - |
| 1778094904 | 10.56° C | 81% | 1026.5 hPa | 0 mm | - | - | - |
| 1778094478 | 10.56° C | 81% | 1026.5 hPa | 0 mm | - | - | - |
| 1778093579 | 11.11° C | 80% | 1026.5 hPa | 0 mm | - | - | - |
| 1778093105 | 11.11° C | 80% | 1026.6 hPa | 0 mm | - | - | - |
| 1778092678 | 11.11° C | 79% | 1026.6 hPa | 0 mm | - | - | - |
| 1778092205 | 11.11° C | 80% | 1026.7 hPa | 0 mm | - | - | - |
| 1778091778 | 11.11° C | 80% | 1026.7 hPa | 0 mm | - | - | - |
| 1778090877 | 10.56° C | 81% | 1026.7 hPa | 0 mm | - | - | - |
| 1778089977 | 10.56° C | 81% | 1026.7 hPa | 0 mm | - | - | - |
| 1778089505 | 10.56° C | 81% | 1026.8 hPa | 0 mm | - | - | - |
| 1778089079 | 10.56° C | 81% | 1027 hPa | 0 mm | - | - | - |
| 1778088604 | 11.11° C | 80% | 1027.1 hPa | 0 mm | - | - | - |
| 1778088179 | 11.11° C | 82% | 1027 hPa | 0 mm | - | - | - |
| 1778087704 | 10.56° C | 82% | 1027.1 hPa | 0 mm | - | - | - |
| 1778087278 | 10.56° C | 83% | 1027.2 hPa | 0 mm | - | - | - |
| 1778086804 | 10° C | 83% | 1027.2 hPa | 0 mm | - | - | - |
| 1778086378 | 10° C | 83% | 1027.2 hPa | 0 mm | - | - | - |
* Rain latest hour (hover to see other rain measurements)
** Current wind speed in m/s (hover to see current wind gust speed)